Weather History for KMVY - August, 2013

Change the Weather History Date:

Monday, August 26, 2013

  Actual Average Record
Temperature  
Mean Temperature 68 °F -  
Max Temperature 73 °F 75 °F 88 °F (1969)
Min Temperature 64 °F 58 °F 37 °F (2004)
Cooling Degree Days 4    
Growing Degree Days 18 (Base 50)    
Moisture  
Dew Point 64 °F    
Average Humidity 81    
Maximum Humidity 87    
Minimum Humidity 71    
Precipitation  
Precipitation 0.00 in - - ()
Sea Level Pressure  
Sea Level Pressure 30.06 in    
Wind  
Wind Speed 9 mph (WSW)    
Max Wind Speed 18 mph    
Max Gust Speed 29 mph    
Visibility 10 miles    
Events Rain    
Averages and records for this station are not official NWS values.
T = Trace of Precipitation, MM = Missing Value Source: NWS Daily Summary

Daily Weather History Graph

Daily Weather History Graph

Search for Another Location

Airport or City:

Trip Planner

Search our weather history database for the weather conditions in past years. The results will help you decide how hot, cold, wet, or windy it might be!

Date:

Astronomy

Aug. 26, 2013 Rise Set
Actual Time 6:02 AM EDT 7:24 PM EDT
Civil Twilight 5:34 AM EDT 7:53 PM EDT
Nautical Twilight 4:59 AM EDT 8:27 PM EDT
Astronomical Twilight 4:22 AM EDT 9:04 PM EDT
Moon 10:28 PM EDT (8/26) 12:06 PM EDT (8/26)
Length of Visible Light 14h 19m
Length of Day
13h 21m
Waning Gibbous, 67% of the Moon is Illuminated
Aug 26
Waning Gibbous
Aug 28
Last Quarter
Sep 5
New
Sep 12
First Quarter
Sep 19
Full

Hourly Weather History & Observations

Time (EDT) Temp. Dew Point Humidity Pressure Visibility Wind Dir Wind Speed Gust Speed Precip Events Conditions
12:53 AM 64.9 °F 61.0 °F 87% 30.23 in 10.0 mi SW 5.8 mph - N/A   Clear
1:53 AM 66.9 °F 62.1 °F 84% 30.22 in 10.0 mi WSW 5.8 mph - N/A   Clear
2:53 AM 66.9 °F 62.1 °F 84% 30.20 in 10.0 mi WSW 6.9 mph - N/A   Clear
3:53 AM 68.0 °F 62.1 °F 81% 30.18 in 10.0 mi SW 6.9 mph - N/A   Clear
4:53 AM 68.0 °F 63.0 °F 84% 30.17 in 10.0 mi SW 8.1 mph - N/A   Clear
5:53 AM 66.9 °F 62.1 °F 84% 30.17 in 10.0 mi WSW 6.9 mph - N/A   Clear
6:53 AM 68.0 °F 62.1 °F 81% 30.16 in 10.0 mi WSW 6.9 mph - N/A   Clear
7:53 AM 69.1 °F 63.0 °F 81% 30.14 in 10.0 mi SW 13.8 mph 18.4 mph N/A   Clear
8:53 AM 69.1 °F 63.0 °F 81% 30.14 in 10.0 mi WSW 11.5 mph - 0.00 in Rain Light Rain
9:53 AM 72.0 °F 63.0 °F 73% 30.13 in 10.0 mi SW 12.7 mph 19.6 mph 0.00 in   Mostly Cloudy
10:53 AM 72.0 °F 62.1 °F 71% 30.11 in 10.0 mi WSW 15.0 mph 20.7 mph N/A   Overcast
1:53 PM 72.0 °F 63.0 °F 73% 30.03 in 10.0 mi WSW 17.3 mph 28.8 mph N/A   Overcast
2:53 PM 73.0 °F 64.0 °F 73% 30.01 in 10.0 mi SW 11.5 mph 20.7 mph N/A   Mostly Cloudy
3:53 PM 73.0 °F 64.0 °F 73% 29.98 in 10.0 mi WSW 18.4 mph 24.2 mph N/A   Scattered Clouds
4:53 PM 73.0 °F 64.0 °F 73% 29.96 in 10.0 mi SW 10.4 mph 25.3 mph N/A   Partly Cloudy
5:53 PM 70.0 °F 64.9 °F 84% 29.96 in 10.0 mi SW 15.0 mph 20.7 mph N/A   Scattered Clouds
6:53 PM 70.0 °F 64.9 °F 84% 29.95 in 10.0 mi SW 10.4 mph 23.0 mph N/A   Mostly Cloudy
7:53 PM 70.0 °F 64.9 °F 84% 29.94 in 10.0 mi WSW 10.4 mph - N/A   Scattered Clouds
8:53 PM 70.0 °F 64.9 °F 84% 29.95 in 10.0 mi WSW 9.2 mph - N/A   Mostly Cloudy
9:53 PM 70.0 °F 66.0 °F 87% 29.94 in 10.0 mi WSW 9.2 mph - N/A   Mostly Cloudy
10:53 PM 70.0 °F 66.0 °F 87% 29.93 in 10.0 mi WSW 8.1 mph - N/A   Overcast
11:53 PM 70.0 °F 66.0 °F 87% 29.92 in 10.0 mi WSW 8.1 mph - 0.00 in   Overcast